H-2A R/B (27601 NORAD) Tracking and Keplerian Element Data

This shows tracking and keplerian element data for the satellite.

Feedback or suggestion? Click here.




ElementValue
Catalog27601
NameH-2A R/B
Epoch Orbit81442
Epoch Day198.80266171
Epoch Year2018
RAAN256.8024
Inclination98.3254
Eccentricity0.0071771
Argument of Perigee200.5813
Mean Anonmoly269.917
Mean Motion14.31847351
Decay Rate2.9E-07
L11 27601U 02056E 18198.80266171 .00000029 00000-0 25624-4 0 9991
L22 27601 98.3254 256.8024 0071771 200.5813 269.9170 14.31847351814428

Live tracking and technical data element details for H-2A R/B (NORAD 27601). H-2A R/B can be tracked NOW for your location showing map with azimuth and elevation plus other details from your city location.

Track the satellite on the map from your city or location and see movement details for azimuth, elevation, latitude, longitude, range, height, and movement on the map or in text.







IsCatalogInMostPopularTable: catalog: 27601, numindb: 24
Update: records affected: 1



GetName: 27601 H-2A R/B

Hit Count: updated at: Thu, 19 Jul 2018 21:09:12 GMT